Location: Newark
(43.6486°N, 79.3853°W)
Time: 11:54:02
(UTC+00:00)

ISS - Pass Details

Date: 01 April 2020
Orbit: 417 x 419 km, 51.6° (Epoch: 03 June)

Event Time Altitude Azimuth Distance (km) Brightness Sun altitude
Rises 00:15:43 0° 301° (WNW) 2,368 1.8 -6.5°
Reaches altitude 10° 00:18:05 10° 315° (NW) 1,501 0.1 -6.9°
Maximum altitude 00:20:54 24° 13° (NNE) 907 -2.0 -7.4°
Drops below altitude 10° 00:23:44 10° 70° (ENE) 1,497 -1.4 -7.9°
Enters shadow 00:24:12 - 74° (ENE) 1,662 -1.3 -8.0°
